Wind_Speed
24 24 35 34 33 28 27 29 29 28 30 27 25 26 27 22 25 28 25 23 22 21 21 23 19 18 18 18 10 9 8 20 29 33 33 26 23 14 6 0 5 8 9 9
19 35 26 25 26 28 30 30 30 28 29 33 29 27 29 30 28 29 27 26 25 24 26 26 21 18 16 15 12 11 15 14 15 19 27 32 34 30 23 15 6 11 11 11
31 21 26 27 28 29 33 31 30 31 30 31 26 29 29 29 23 25 22 26 25 26 29 24 24 19 15 15 15 13 13 12 11 11 17 23 29 36 39 28 22 13 15 14
27 22 27 30 30 29 31 29 22 26 26 22 23 19 35 37 29 24 22 24 22 24 29 25 23 19 16 16 17 18 13 11 8 8 7 4 3 12 16 21 25 16 17 15
37 28 23 32 30 28 30 25 24 22 28 23 26 25 30 39 33 30 31 26 26 29 30 26 23 21 20 19 15 16 15 14 12 9 11 9 8 12 14 19 21 29 29 22
30 27 27 22 26 26 22 20 24 24 24 18 27 27 34 33 30 27 29 29 30 33 32 27 25 26 24 22 19 15 18 17 15 12 12 13 13 12 12 15 16 17 17 16
30 32 26 22 25 24 23 25 14 15 16 9 26 30 24 26 31 37 34 34 32 34 32 30 29 25 25 25 21 18 18 20 18 16 15 14 14 16 17 16 15 14 14 15
28 30 33 24 30 28 29 31 14 18 13 12 22 29 34 26 23 24 28 33 35 37 35 35 29 25 28 27 24 20 18 20 20 18 17 17 18 18 17 17 15 15 13 11
30 32 32 26 22 28 31 34 30 19 24 19 23 28 25 17 25 18 32 31 37 38 36 36 32 28 29 29 27 21 21 22 22 21 19 19 20 20 18 16 14 14 12 13
31 20 28 31 24 28 30 32 29 25 7 15 18 28 28 21 19 22 26 27 35 35 37 38 33 32 33 29 27 23 22 24 24 23 20 20 21 19 17 17 15 15 15 13
33 28 20 27 34 32 34 28 35 27 22 7 7 19 12 37 33 30 24 26 29 36 38 34 35 37 33 29 27 25 25 27 24 23 23 23 21 18 18 17 17 17 17 14
27 26 26 25 30 27 33 31 31 23 31 29 13 15 6 18 22 21 29 27 27 28 35 35 36 33 31 27 25 26 26 26 22 22 22 20 19 19 19 17 19 19 16 14
9 18 23 24 21 28 30 37 37 38 15 23 10 15 7 11 15 15 16 24 29 31 29 35 35 34 29 25 24 26 27 25 21 20 18 17 17 18 18 18 20 19 16 14
6 13 21 18 25 29 31 32 35 34 30 28 29 22 19 13 12 14 14 22 28 30 32 35 38 32 27 25 24 23 26 25 21 21 19 18 17 17 18 20 20 17 16 15
3 14 19 23 28 22 27 31 34 36 36 33 32 29 26 22 19 17 17 22 24 32 33 38 41 36 30 26 23 22 24 23 23 23 20 18 17 18 20 22 19 19 17 15
5 8 15 23 24 30 24 23 31 34 38 34 36 31 31 23 18 21 19 20 24 28 34 35 33 34 33 27 21 21 22 22 24 24 22 19 18 20 23 23 21 19 17 16
4 5 7 19 24 27 32 31 23 32 35 36 36 37 28 28 31 25 23 25 25 29 31 31 28 25 24 23 23 23 23 23 26 25 23 19 19 21 23 23 21 19 18 17
12 7 5 9 16 22 32 30 27 24 27 33 31 31 33 30 26 30 26 28 23 16 23 27 27 26 24 24 24 23 22 23 26 26 24 20 19 23 24 23 22 20 19 18
16 12 6 8 16 14 26 29 27 28 26 20 34 32 29 29 31 25 31 26 25 19 15 20 20 22 22 24 23 22 22 22 27 28 26 21 20 24 25 24 21 20 20 19
18 12 13 3 9 9 25 17 24 27 32 22 18 17 31 30 34 30 28 24 27 22 19 19 22 23 23 24 23 23 23 23 26 27 26 22 21 25 25 23 22 21 20 20
24 19 18 14 9 19 12 17 17 15 22 29 26 23 22 29 34 30 23 27 30 28 25 26 24 22 23 25 25 24 23 24 22 26 27 23 23 27 25 24 23 23 22 21
15 11 12 14 12 13 14 8 3 7 14 21 31 33 28 17 22 28 20 34 25 30 30 31 24 21 21 21 22 19 18 20 21 27 27 25 24 29 28 26 25 24 23 22
8 10 4 2 9 14 13 7 7 11 7 19 29 34 26 25 23 29 33 15 29 35 29 30 26 23 22 21 22 21 19 17 21 27 27 25 26 30 29 28 26 25 24 22
16 15 10 7 9 13 1 12 8 14 11 8 21 32 27 24 19 24 27 19 31 34 28 28 26 25 24 23 22 20 19 16 20 24 27 26 27 32 32 29 28 27 26 24
14 13 14 13 15 18 15 7 13 15 9 6 10 19 30 27 22 21 25 20 26 28 25 27 28 29 26 23 22 19 19 18 19 22 25 26 26 31 33 29 28 28 26 24
10 11 15 18 20 16 13 9 3 18 16 5 8 10 17 30 27 21 26 21 21 22 23 26 25 26 24 23 23 22 19 19 19 20 23 26 26 29 33 32 30 29 27 27
Wind_Direction
202 197 206 201 204 207 206 208 214 215 198 197 212 221 224 213 226 231 221 225 231 231 225 223 223 229 238 243 197 185 180 225 254 245 248 258 259 246 224 151 347 327 313 312
206 215 209 206 207 209 220 210 220 225 208 199 208 217 213 237 227 223 225 224 231 228 224 222 220 211 201 211 223 226 219 234 252 247 247 252 253 247 258 278 309 346 331 318
205 221 207 208 208 209 221 227 217 222 229 195 206 220 210 193 198 210 228 227 225 225 228 218 208 211 212 224 230 220 233 248 250 254 233 240 248 249 252 265 244 294 324 326
214 211 207 208 214 209 219 218 229 216 182 184 200 219 224 192 193 199 214 219 216 200 223 215 216 220 225 225 230 233 240 235 232 227 208 153 319 243 233 243 230 271 276 318
216 209 209 211 212 210 219 216 224 223 212 205 205 224 240 196 194 199 204 216 201 207 223 220 219 225 230 234 230 241 238 237 242 253 245 238 230 221 239 246 264 253 263 282
219 214 213 216 214 212 211 214 212 230 238 204 214 220 236 197 193 206 205 214 199 208 229 227 224 228 229 239 242 246 242 241 239 237 245 250 251 247 254 250 261 265 259 248
214 219 216 217 215 210 205 213 189 218 228 229 211 234 220 235 223 211 205 209 205 207 223 227 231 232 234 243 243 245 242 240 239 232 233 233 244 254 258 263 269 265 249 243
212 217 208 207 210 204 209 213 204 205 215 216 221 221 237 228 216 219 224 205 205 205 218 224 229 236 240 243 243 243 250 248 243 242 245 250 252 258 259 264 267 261 242 224
215 222 212 210 209 209 208 219 217 216 224 224 221 226 228 231 212 213 211 210 211 211 212 224 233 236 242 243 241 240 244 246 243 243 245 247 251 259 263 264 266 256 227 220
229 235 216 218 213 219 221 215 221 222 213 230 236 223 215 210 200 207 196 206 214 215 212 218 233 234 236 240 236 235 239 244 241 242 243 249 253 253 253 254 250 229 219 222
229 241 240 216 202 208 215 224 215 227 234 235 237 245 266 212 211 204 213 212 212 217 215 220 231 239 238 237 240 234 236 244 244 246 250 253 254 255 255 251 233 215 213 216
219 230 239 238 209 209 216 217 211 214 221 232 249 250 58 196 218 224 209 210 206 213 217 224 237 244 234 238 239 234 235 244 243 243 242 244 249 251 250 240 218 212 216 218
226 220 223 234 224 201 212 217 217 220 224 235 242 236 225 172 193 198 206 207 210 204 214 220 236 237 233 235 242 236 235 242 240 239 239 240 245 251 248 229 212 212 216 218
268 243 233 225 220 205 209 219 219 219 215 227 234 235 233 221 206 203 210 205 205 207 209 221 234 235 230 232 237 235 234 241 238 239 236 239 247 250 240 217 212 215 216 218
305 257 236 234 231 227 216 219 222 219 225 218 229 234 232 227 235 213 214 202 205 205 208 222 231 230 225 234 235 234 234 237 236 237 235 240 251 247 225 213 213 218 216 219
227 264 252 248 242 244 254 250 220 227 220 227 226 227 223 224 219 208 213 204 201 210 220 225 229 231 228 233 233 234 234 234 234 233 233 240 251 237 217 210 214 217 219 221
299 304 272 255 239 248 250 237 245 223 227 222 230 225 221 228 224 221 224 208 205 207 216 223 229 228 228 226 230 232 238 239 236 233 233 241 246 227 214 215 217 220 222 225
271 266 262 262 240 237 243 231 233 244 237 231 234 232 227 226 227 226 223 206 205 217 216 219 220 219 223 227 231 232 235 240 238 235 236 243 241 220 213 217 219 222 224 226
257 244 252 242 236 249 236 233 235 241 249 238 230 237 233 228 231 228 220 209 218 214 222 219 223 228 230 227 222 229 237 239 235 235 237 243 237 216 215 219 222 224 226 229
227 236 217 262 228 229 233 233 242 246 258 246 253 243 227 229 228 229 207 212 216 218 206 206 213 219 221 223 232 242 247 247 238 234 236 242 230 215 216 221 223 225 228 230
196 217 219 236 245 237 259 238 237 230 251 238 245 237 235 236 237 208 216 217 213 226 213 217 218 226 230 232 240 246 251 251 237 230 233 238 226 215 215 220 223 226 229 232
186 200 201 220 231 242 245 248 260 280 233 212 223 229 226 237 205 207 215 200 206 212 216 222 217 227 235 239 239 243 250 245 228 227 231 237 227 217 216 221 223 226 230 235
27 1 301 201 203 182 185 158 131 201 248 215 213 218 221 217 210 216 207 213 210 213 229 222 224 230 241 241 241 243 247 246 225 226 229 236 227 219 220 222 224 228 232 238
349 336 337 317 302 209 97 158 210 216 196 218 215 217 214 211 207 209 216 217 202 209 225 226 225 229 238 234 241 245 244 244 230 228 229 234 230 221 225 224 226 231 235 239
320 313 325 332 295 291 295 316 218 243 249 198 211 213 207 201 200 216 210 205 212 211 217 226 231 236 237 234 235 235 235 235 233 231 231 235 235 226 230 230 233 237 240 243
308 343 334 326 324 336 322 283 332 221 246 265 218 219 219 204 200 201 186 190 205 207 224 225 225 234 230 231 234 233 236 235 238 241 236 237 237 231 231 235 235 237 239 243
Height
3051 3056 3052 3058 3064 3071 3075 3078 3078 3083 3085 3091 3092 3095 3096 3103 3105 3109 3111 3112 3116 3119 3123 3126 3129 3133 3137 3140 3142 3139 3145 3149 3148 3149 3153 3156 3160 3160 3160 3160 3162 3162 3163 3162
3050 3045 3054 3061 3064 3067 3069 3072 3075 3078 3081 3086 3089 3092 3091 3095 3099 3103 3106 3108 3113 3116 3119 3122 3127 3131 3134 3137 3139 3141 3143 3144 3145 3144 3148 3153 3155 3156 3158 3160 3160 3161 3162 3162
3041 3045 3052 3056 3059 3062 3064 3065 3070 3074 3076 3080 3085 3088 3090 3090 3097 3103 3102 3106 3109 3113 3115 3120 3125 3129 3132 3135 3137 3139 3141 3141 3142 3143 3145 3146 3147 3149 3154 3157 3157 3160 3160 3159
3041 3044 3046 3050 3053 3058 3059 3061 3065 3069 3073 3076 3081 3082 3084 3087 3094 3099 3101 3101 3105 3111 3111 3117 3121 3126 3129 3132 3133 3136 3137 3139 3141 3144 3144 3143 3144 3147 3151 3153 3154 3156 3159 3158
3031 3038 3041 3044 3048 3053 3055 3061 3063 3066 3069 3073 3075 3081 3079 3077 3087 3091 3092 3098 3103 3108 3108 3113 3118 3122 3125 3126 3130 3132 3135 3137 3139 3140 3142 3143 3145 3147 3149 3151 3153 3154 3154 3155
3031 3036 3038 3041 3046 3049 3055 3058 3062 3063 3064 3064 3068 3074 3074 3078 3082 3089 3092 3093 3100 3104 3106 3110 3114 3117 3120 3123 3126 3129 3131 3133 3135 3138 3140 3142 3144 3145 3147 3148 3149 3149 3149 3151
3026 3028 3034 3038 3041 3046 3049 3053 3057 3061 3058 3055 3066 3070 3070 3075 3076 3082 3086 3090 3095 3101 3103 3105 3108 3113 3116 3118 3122 3124 3126 3129 3132 3135 3137 3139 3141 3144 3144 3145 3146 3146 3147 3148
3020 3024 3025 3030 3036 3041 3043 3047 3048 3051 3054 3057 3062 3059 3063 3071 3075 3077 3081 3086 3091 3095 3099 3101 3105 3109 3111 3113 3117 3120 3122 3125 3128 3131 3134 3136 3138 3139 3140 3141 3142 3143 3144 3145
3014 3017 3025 3027 3033 3037 3040 3043 3047 3052 3054 3056 3054 3062 3064 3065 3068 3072 3075 3080 3085 3090 3094 3097 3101 3104 3106 3108 3111 3115 3118 3121 3124 3127 3129 3131 3133 3135 3136 3138 3139 3140 3141 3143
3011 3015 3018 3023 3030 3032 3034 3043 3046 3046 3051 3051 3051 3052 3055 3059 3063 3068 3074 3079 3080 3083 3089 3092 3096 3098 3100 3104 3108 3111 3113 3115 3119 3122 3125 3128 3130 3131 3133 3135 3136 3137 3140 3142
3009 3012 3013 3015 3017 3025 3030 3033 3039 3045 3048 3048 3049 3048 3049 3048 3056 3062 3067 3073 3079 3079 3083 3088 3089 3092 3096 3100 3103 3107 3109 3110 3115 3119 3122 3124 3125 3127 3129 3131 3132 3135 3137 3139
3005 3006 3008 3009 3013 3021 3026 3030 3035 3038 3038 3042 3046 3049 3047 3050 3057 3058 3062 3067 3074 3077 3079 3082 3085 3088 3090 3094 3099 3102 3104 3106 3111 3114 3117 3119 3122 3124 3125 3127 3129 3132 3135 3137
2997 2998 3005 3007 3010 3013 3019 3022 3027 3034 3040 3041 3045 3045 3048 3051 3053 3056 3059 3063 3069 3075 3075 3078 3081 3082 3086 3090 3093 3097 3100 3103 3107 3110 3113 3116 3118 3119 3121 3123 3126 3128 3131 3134
2998 2998 3000 3002 3004 3010 3016 3019 3023 3028 3034 3035 3037 3044 3046 3048 3050 3054 3056 3060 3065 3069 3071 3073 3076 3078 3082 3085 3089 3093 3096 3099 3103 3106 3109 3112 3114 3115 3117 3120 3123 3127 3129 3132
2998 2998 2999 3001 3003 3006 3010 3014 3018 3022 3026 3031 3035 3039 3042 3044 3047 3049 3053 3057 3061 3065 3067 3069 3070 3072 3077 3081 3085 3089 3092 3095 3099 3102 3105 3108 3110 3111 3113 3116 3121 3124 3127 3130
2996 2997 2999 3000 3001 3003 3007 3008 3013 3016 3020 3027 3030 3033 3037 3040 3043 3047 3049 3054 3057 3059 3062 3064 3065 3068 3072 3077 3081 3085 3087 3090 3094 3097 3101 3104 3105 3107 3110 3114 3117 3121 3124 3127
2998 2997 2999 2997 3001 3001 3002 3005 3007 3011 3013 3019 3021 3027 3033 3035 3038 3041 3046 3047 3052 3056 3057 3058 3060 3064 3069 3073 3077 3080 3082 3086 3089 3093 3097 3099 3101 3103 3107 3111 3115 3118 3121 3124
2998 2999 3000 2998 3000 2998 2993 3003 3006 3007 3010 3014 3018 3022 3026 3030 3034 3037 3040 3040 3046 3050 3052 3054 3057 3061 3065 3069 3072 3075 3078 3080 3084 3088 3092 3095 3096 3099 3104 3108 3111 3115 3118 3121
2993 2997 2998 2997 2997 2996 2996 2998 3002 3004 3006 3008 3014 3017 3021 3025 3029 3031 3034 3035 3040 3045 3048 3051 3054 3058 3061 3064 3068 3071 3073 3075 3078 3082 3086 3090 3092 3096 3100 3105 3109 3112 3115 3118
2990 2992 2997 2995 2996 2992 2991 2997 2998 3000 2999 3005 3008 3011 3016 3020 3022 3026 3028 3032 3035 3040 3044 3047 3050 3053 3057 3061 3064 3066 3067 3069 3073 3077 3082 3086 3089 3092 3097 3102 3106 3109 3112 3114
2983 2988 2990 2993 2992 2990 2988 2989 2991 2995 2999 3004 3003 3004 3006 3011 3015 3020 3024 3028 3028 3033 3038 3043 3046 3050 3053 3056 3059 3061 3063 3065 3070 3074 3077 3081 3085 3089 3094 3098 3102 3105 3108 3110
2978 2981 2983 2988 2990 2989 2985 2987 2991 2991 2989 2990 2994 2998 3002 3005 3008 3015 3021 3021 3026 3027 3032 3037 3042 3045 3049 3052 3054 3057 3059 3061 3065 3068 3073 3077 3081 3084 3089 3093 3097 3100 3103 3106
2977 2980 2978 2981 2983 2981 2980 2983 2982 2981 2984 2985 2988 2994 2998 3003 3002 3009 3016 3016 3020 3022 3027 3033 3038 3041 3044 3047 3050 3053 3055 3057 3061 3064 3068 3072 3076 3080 3084 3088 3092 3095 3098 3101
2981 2978 2978 2977 2974 2971 2975 2976 2976 2978 2976 2980 2983 2987 2992 2997 3002 3006 3009 3014 3015 3019 3023 3028 3033 3037 3040 3043 3046 3049 3051 3054 3057 3059 3063 3067 3071 3075 3078 3083 3087 3090 3093 3097
2983 2980 2977 2975 2972 2971 2972 2973 2973 2976 2975 2976 2980 2983 2987 2991 2995 3000 3006 3011 3010 3015 3019 3023 3028 3032 3036 3039 3041 3044 3046 3049 3052 3055 3059 3062 3066 3070 3074 3079 3083 3086 3090 3093
2980 2978 2978 2977 2975 2974 2973 2974 2973 2971 2975 2976 2980 2981 2983 2986 2991 2996 3002 3006 3010 3013 3014 3019 3024 3027 3031 3034 3036 3039 3042 3045 3048 3050 3054 3057 3061 3065 3069 3073 3077 3081 3085 3088